Regional Weather Roundup
Issued by NWS

Home | Current Version | Previous Version | Text Only | Print | Product List | Glossary On
Versions: 1 2 3 4 5 6 7 8 9 10 11 12 13 14 15 16 17 18 19 20 21 22 23 24 25 26 27 28 29 30 31 32 33 34 35 36 37 38 39 40 41 42 43 44 45 46 47 48 49 50
000
ASUS43 KLSX 030510
RWRMO

WEATHER SUMMARY FOR MISSOURI
NATIONAL WEATHER SERVICE SPRINGFIELD MO
1100 PM CST FRI DEC 02 2016

NOTE: "FAIR" INDICATES FEW OR NO CLOUDS BELOW 12,000 FEET WITH NO
       SIGNIFICANT WEATHER AND/OR OBSTRUCTIONS TO VISIBILITY.
       CURRENT SKY AND/OR WEATHER CONDITIONS ARE NOT AVAILABLE FOR
       CHILLICOTHE AND FARMINGTON.

MOZ001>031-035>038-043-044-053-054-030600-
...NORTHERN AND WESTERN MISSOURI...

CITY           SKY/WX    TMP DP  RH WIND       PRES   REMARKS
KANSAS CTY INT NOT AVBL
KANSAS C DTWN  PTCLDY    35  29  78 CALM      30.36R
LEE`S SUMMIT   CLEAR     37  27  67 E5        30.35
CHILLICOTHE      N/A     29  25  85 CALM      30.36R
KIRKSVILLE     CLEAR     27  25  92 CALM      30.34R

$$
MOZ066>068-077>081-088>096-101>105-030600-
...SOUTHWEST MISSOURI...

CITY           SKY/WX    TMP DP  RH WIND       PRES   REMARKS
SPRINGFIELD    CLOUDY    45  25  45 E7        30.29S
BRANSON          N/A     46  32  57 E5        30.30R

$$
MOZ032>034-039>042-045>050-055>058-069>072-030600-
...CENTRAL MISSOURI...

CITY           SKY/WX    TMP DP  RH WIND       PRES   REMARKS
COLUMBIA       PTCLDY    33  27  78 SE3       30.36R
WHITEMAN AFB   CLEAR     30  27  87 CALM      30.35R
WARRENSBURG    CLEAR     32  28  86 CALM      30.35R
OSAGE BEACH    CLOUDY    38  25  59 E3        30.35S

$$
MOZ051-052-059>065-030600-
...EAST CENTRAL MISSOURI...

CITY           SKY/WX    TMP DP  RH WIND       PRES   REMARKS
ST LOUIS INTL  PTCLDY    35  27  72 CALM      30.37R
SPIRIT OF STL  CLEAR     27  26  96 CALM      30.36R
ST CHARLES     PTCLDY    30  28  92 CALM      30.36  FOG

$$
MOZ072>076-082>087-097>100-106>115-030600-
...SOUTH CENTRAL AND SOUTHEAST MISSOURI...

CITY           SKY/WX    TMP DP  RH WIND       PRES   REMARKS
CAPE GIRARDEAU PTCLDY    35  30  82 NE6       30.35
FARMINGTON     CLEAR     31  28  89 NE3       30.35R
WEST PLAINS    PTCLDY    41  28  60 NE5       30.32R

$$




USA.gov is the U.S. government's official web portal to all federal, state and local government web resources and services.